DW5487 Weather Reports


Display with metric or nautical units.
time (UTC)temp
F
wind
direction
speed
MPH
gust
MPH
rain 1hr
in
rain 24hr
in
rain mn
in
humidity
%
barometer
mb
20260507054515 56 165 0.0 0.0 0.00 0.06 0.06 97 977.5
20260507054015 56 165 0.0 2.0 0.00 0.06 0.06 97 977.4
20260507053516 56 164 1.0 2.0 0.00 0.06 0.06 97 977.4
20260507053013 56 148 1.0 3.0 0.00 0.06 0.06 97 977.3
20260507052519 56 155 1.0 3.0 0.00 0.06 0.06 97 977.2
20260507052012 56 198 0.0 3.0 0.00 0.06 0.06 97 977.2
20260507051511 55 210 1.0 2.0 0.00 0.06 0.06 97 977.1
20260507051013 55 151 1.0 2.0 0.00 0.06 0.06 97 977.1
20260507050512 55 243 0.0 2.0 0.00 0.06 0.06 97 977.1
20260507050013 55 237 0.0 2.0 0.00 0.06 0.06 97 977.1
20260507045509 55 231 1.0 4.0 0.00 0.06 0.06 97 977.0
20260507045009 55 243 1.0 4.0 0.00 0.06 0.06 97 977.1
20260507044011 54 229 2.0 5.0 0.00 0.07 0.06 97 976.8
20260507043509 54 202 3.0 6.0 0.00 0.08 0.06 97 976.8
20260507043011 54 233 3.0 6.0 0.00 0.08 0.06 97 976.7
20260507042509 54 246 3.0 5.0 0.00 0.09 0.06 97 976.7
20260507041507 54 220 3.0 7.0 0.00 0.09 0.06 97 976.5
20260507041006 54 148 3.0 7.0 0.00 0.09 0.06 97 976.6
20260507040008 54 218 3.0 7.0 0.00 0.10 0.06 97 976.5
20260507035505 54 222 2.0 6.0 0.00 0.10 0.06 97 976.6
20260507035007 54 239 2.0 5.0 0.00 0.10 0.06 97 976.5
20260507034504 54 227 2.0 5.0 0.00 0.10 0.06 97 976.4
20260507033958 54 200 3.0 6.0 0.00 0.10 0.06 97 976.5
20260507033451 54 188 3.0 7.0 0.00 0.10 0.06 97 976.6
20260507031453 54 243 3.0 6.0 0.00 0.11 0.06 97 976.4
20260507030951 54 211 2.0 5.0 0.00 0.12 0.06 97 976.5
20260507030504 54 229 3.0 6.0 0.00 0.12 0.06 97 976.5
20260507025954 55 229 4.0 8.0 0.00 0.12 0.06 97 976.5
20260507025452 55 212 4.0 8.0 0.00 0.12 0.06 97 976.6
20260507024953 55 231 4.0 7.0 0.00 0.12 0.06 97 976.5
20260507024454 55 188 3.0 7.0 0.00 0.12 0.06 97 976.5
20260507023955 55 182 4.0 8.0 0.00 0.12 0.06 97 976.4
20260507023507 55 219 5.0 10.0 0.00 0.12 0.06 97 976.6
20260507022446 56 153 5.0 9.0 0.00 0.12 0.06 97 976.6
20260507021944 56 218 5.0 9.0 0.00 0.12 0.06 97 976.6
20260507021444 56 171 4.0 8.0 0.00 0.12 0.06 97 976.6
20260507020956 56 216 4.0 7.0 0.00 0.12 0.06 97 976.6
20260507020444 56 211 5.0 9.0 0.00 0.12 0.06 97 976.6
20260507015943 56 214 5.0 9.0 0.00 0.12 0.06 97 976.6
20260507015446 56 169 5.0 9.0 0.00 0.12 0.06 97 976.7
20260507014445 56 199 4.0 8.0 0.01 0.12 0.06 97 976.6
20260507013943 56 191 4.0 8.0 0.01 0.12 0.06 97 976.5
20260507013443 56 221 4.0 9.0 0.01 0.12 0.06 97 976.7
20260507012944 56 232 5.0 9.0 0.01 0.12 0.06 96 976.7
20260507012443 56 207 4.0 9.0 0.01 0.12 0.06 96 976.7
20260507011946 56 211 4.0 8.0 0.01 0.12 0.06 96 976.7
20260507011443 56 228 4.0 8.0 0.01 0.13 0.06 96 976.7
20260507010937 56 250 3.0 6.0 0.02 0.13 0.06 96 976.7
20260507010431 56 211 3.0 8.0 0.02 0.13 0.06 96 976.7
20260507005928 56 256 3.0 8.0 0.03 0.13 0.06 96 976.8
20260507005427 56 293 2.0 5.0 0.03 0.12 0.06 96 976.8
20260507004928 56 227 3.0 6.0 0.04 0.12 0.05 96 976.7
20260507004430 56 221 3.0 7.0 0.04 0.12 0.05 96 976.6
20260507003929 56 206 4.0 8.0 0.04 0.12 0.05 96 976.6
20260507003431 57 202 4.0 8.0 0.04 0.12 0.05 96 976.6
20260507002929 57 200 4.0 8.0 0.04 0.12 0.05 96 976.5
20260507001952 57 218 3.0 7.0 0.04 0.12 0.05 95 976.4
20260507000927 58 227 2.0 5.0 0.03 0.11 0.04 95 976.3
20260507000431 58 217 3.0 8.0 0.02 0.10 0.03 95 976.3
20260506235927 58 181 2.0 8.0 0.02 0.09 0.02 95 976.4
20260506235425 58 141 2.0 5.0 0.01 0.09 0.02 95 976.6
20260506234413 58 186 4.0 8.0 0.00 0.08 0.01 95 976.7
20260506233911 58 208 3.0 8.0 0.00 0.08 0.01 95 976.7
20260506233409 58 206 3.0 8.0 0.00 0.08 0.01 95 976.7
20260506232908 58 208 3.0 7.0 0.01 0.08 0.01 95 976.7
20260506232407 58 247 3.0 7.0 0.01 0.08 0.01 95 976.6
20260506231419 58 207 3.0 6.0 0.01 0.08 0.01 95 976.5
20260506230908 58 248 3.0 7.0 0.01 0.08 0.01 95 976.6
20260506225907 58 225 4.0 9.0 0.01 0.08 0.01 95 976.5
20260506225407 58 176 5.0 10.0 0.01 0.08 0.01 95 976.4
20260506224908 58 214 5.0 10.0 0.01 0.08 0.01 94 976.5
20260506224407 58 200 4.0 10.0 0.01 0.08 0.01 94 976.5
20260506223904 58 197 5.0 10.0 0.01 0.08 0.01 94 976.6
20260506223406 58 200 5.0 13.0 0.01 0.08 0.01 94 976.7
20260506222904 58 226 5.0 13.0 0.00 0.07 0.00 94 976.6
20260506222406 58 233 5.0 10.0 0.00 0.07 0.00 94 976.6
20260506221906 58 219 4.0 10.0 0.00 0.07 0.00 94 976.6
20260506221405 58 168 4.0 13.0 0.00 0.07 0.00 94 976.6
20260506220903 58 230 5.0 13.0 0.00 0.07 0.00 94 976.6
20260506220402 58 221 5.0 10.0 0.00 0.07 0.00 94 976.7
20260506215902 58 176 6.0 12.0 0.00 0.07 0.07 94 976.7
20260506215400 58 217 6.0 12.0 0.00 0.07 0.07 94 976.7
20260506214858 58 205 4.0 11.0 0.00 0.07 0.07 94 976.7
20260506214400 58 206 5.0 11.0 0.00 0.07 0.07 94 976.7
20260506213859 58 223 6.0 10.0 0.00 0.07 0.07 93 976.8
20260506213358 58 219 6.0 13.0 0.00 0.07 0.07 93 977.0
20260506212859 58 204 7.0 14.0 0.00 0.07 0.07 93 976.9
20260506211858 58 200 6.0 13.0 0.00 0.07 0.07 93 976.9
20260506211357 59 226 4.0 13.0 0.00 0.07 0.07 93 977.0
20260506210900 59 252 4.0 10.0 0.00 0.07 0.07 93 976.9
20260506210356 59 223 5.0 10.0 0.00 0.07 0.07 93 976.9
20260506205850 59 162 6.0 10.0 0.00 0.07 0.07 93 977.0
20260506205346 59 193 5.0 11.0 0.00 0.07 0.07 93 976.9
20260506204846 59 176 4.0 11.0 0.00 0.07 0.07 93 976.8
20260506204348 59 200 5.0 10.0 0.00 0.07 0.07 93 976.9
20260506203349 59 222 3.0 8.0 0.00 0.07 0.07 93 976.8
20260506202347 59 123 5.0 11.0 0.00 0.07 0.07 93 976.7
20260506201848 59 169 5.0 10.0 0.00 0.07 0.07 93 976.8
20260506201347 59 205 5.0 10.0 0.00 0.07 0.07 93 976.9
20260506200850 59 212 4.0 10.0 0.00 0.07 0.07 93 976.9
20260506195849 59 207 2.0 6.0 0.00 0.07 0.07 93 976.6
20260506194847 59 205 4.0 9.0 0.00 0.07 0.07 93 976.5
20260506194341 59 208 4.0 9.0 0.00 0.07 0.07 92 976.5
20260506193834 59 208 4.0 9.0 0.00 0.07 0.07 92 976.4
20260506192833 59 257 4.0 8.0 0.00 0.07 0.07 92 976.3
20260506192333 60 207 4.0 9.0 0.00 0.07 0.07 92 976.4
20260506191835 60 206 4.0 9.0 0.00 0.07 0.07 92 976.3
20260506191336 60 188 4.0 10.0 0.00 0.07 0.07 91 976.1
20260506190832 60 137 4.0 10.0 0.00 0.07 0.07 91 976.2
20260506190335 60 213 4.0 10.0 0.00 0.07 0.07 91 976.0
20260506185834 60 218 4.0 10.0 0.00 0.07 0.07 91 976.0
20260506185335 60 160 5.0 10.0 0.00 0.07 0.07 90 975.9
20260506184834 60 131 5.0 12.0 0.00 0.07 0.07 90 975.9
20260506184335 60 224 5.0 12.0 0.00 0.07 0.07 90 975.9
20260506183833 60 191 4.0 10.0 0.00 0.07 0.07 90 975.8
20260506183345 60 242 3.0 10.0 0.00 0.07 0.07 89 975.8
20260506182834 60 191 3.0 8.0 0.00 0.07 0.07 89 975.8
20260506182333 60 240 4.0 11.0 0.00 0.07 0.07 89 975.7
20260506181835 61 146 4.0 11.0 0.00 0.07 0.07 89 975.7
20260506181333 61 235 3.0 9.0 0.00 0.07 0.07 89 975.7
20260506175832 61 228 6.0 12.0 0.00 0.07 0.07 88 975.6
20260506175334 61 199 6.0 16.0 0.00 0.07 0.07 88 975.7
20260506174834 61 238 6.0 16.0 0.00 0.07 0.07 87 975.6
20260506174333 61 212 4.0 13.0 0.00 0.07 0.07 87 975.6
20260506173332 61 177 4.0 11.0 0.00 0.07 0.07 87 975.6
20260506172827 62 143 5.0 11.0 0.00 0.07 0.07 86 975.6
20260506172322 62 216 6.0 11.0 0.00 0.07 0.07 86 975.4
20260506171817 62 212 6.0 12.0 0.00 0.07 0.07 86 975.6
20260506171315 62 203 7.0 12.0 0.00 0.07 0.07 86 975.5
20260506170815 62 200 7.0 16.0 0.00 0.07 0.07 86 975.5
20260506170314 62 212 8.0 16.0 0.00 0.07 0.07 86 975.5
20260506165812 62 248 7.0 13.0 0.00 0.07 0.07 85 975.6
20260506165311 62 203 8.0 16.0 0.00 0.07 0.07 85 975.5
20260506164309 62 190 9.0 18.0 0.00 0.07 0.07 85 975.8
20260506163313 62 231 7.0 16.0 0.00 0.07 0.07 85 975.6
20260506162811 62 229 8.0 15.0 0.00 0.07 0.07 85 975.6
20260506162307 63 195 8.0 15.0 0.00 0.07 0.07 85 975.7
20260506161807 63 163 7.0 15.0 0.00 0.07 0.07 84 975.7
20260506161311 63 165 7.0 15.0 0.00 0.07 0.07 84 975.7
20260506160311 62 174 7.0 13.0 0.00 0.07 0.07 85 975.7
20260506155310 62 120 8.0 15.0 0.00 0.07 0.07 85 975.8
20260506154808 62 158 7.0 14.0 0.00 0.07 0.07 85 975.9
20260506154308 62 162 8.0 15.0 0.00 0.07 0.07 86 975.8
20260506153808 62 180 7.0 15.0 0.00 0.07 0.07 86 975.8
20260506153310 62 242 6.0 12.0 0.00 0.07 0.07 87 975.7
20260506152808 62 173 6.0 12.0 0.00 0.07 0.07 86 975.8
20260506152308 62 215 5.0 12.0 0.00 0.07 0.07 86 975.9
20260506151306 62 227 4.0 12.0 0.00 0.07 0.07 86 975.9
20260506150806 62 225 5.0 12.0 0.00 0.07 0.07 86 975.8
20260506150306 62 137 6.0 12.0 0.00 0.07 0.07 86 975.8
20260506145807 62 178 6.0 12.0 0.00 0.07 0.07 85 975.8
20260506145419 62 221 7.0 15.0 0.00 0.07 0.07 85 975.8
20260506145140 62 235 7.0 15.0 0.00 0.07 0.07 85 975.8
20260506144409 62 208 6.0 13.0 0.00 0.07 0.07 86 975.8
20260506143630 62 214 5.0 11.0 0.00 0.07 0.07 87 975.8
20260506143345 62 204 5.0 13.0 0.00 0.07 0.07 86 975.9
20260506143122 62 233 6.0 13.0 0.00 0.07 0.07 86 975.8
20260506142845 62 214 8.0 15.0 0.00 0.07 0.07 86 975.8
20260506142614 62 219 8.0 15.0 0.00 0.07 0.07 86 975.9
20260506133807 62 197 6.0 14.0 0.00 0.07 0.07 87 975.9
20260506132808 61 191 4.0 12.0 0.00 0.07 0.07 87 975.8
20260506132308 61 216 6.0 15.0 0.00 0.07 0.07 87 975.9
20260506131810 61 207 6.0 15.0 0.00 0.07 0.07 87 976.0
20260506130808 62 229 6.0 13.0 0.00 0.07 0.07 86 976.0
20260506130309 62 122 6.0 16.0 0.00 0.07 0.07 86 976.1
20260506125805 62 205 5.0 16.0 0.00 0.08 0.07 86 976.0
20260506125308 62 161 5.0 11.0 0.00 0.08 0.07 87 976.0
20260506124804 62 158 5.0 11.0 0.00 0.08 0.07 87 976.1
20260506124305 62 207 3.0 9.0 0.00 0.08 0.07 87 976.2
20260506123806 62 186 4.0 8.0 0.00 0.08 0.07 87 976.3
20260506123302 62 232 7.0 16.0 0.00 0.08 0.07 86 976.4
20260506122803 62 150 9.0 16.0 0.00 0.08 0.07 84 976.4
20260506121802 63 255 6.0 14.0 0.00 0.08 0.07 79 976.5
20260506121304 64 150 7.0 17.0 0.00 0.08 0.07 78 976.5
20260506120802 64 193 7.0 17.0 0.00 0.08 0.07 77 976.4
20260506120303 64 200 8.0 16.0 0.00 0.08 0.07 76 976.4
20260506115755 64 203 9.0 16.0 0.00 0.08 0.07 75 976.3
20260506115250 65 210 9.0 16.0 0.00 0.08 0.07 74 976.3
20260506114748 65 228 9.0 17.0 0.00 0.08 0.07 72 976.3
20260506114246 66 193 10.0 20.0 0.00 0.08 0.07 71 976.3
20260506113746 66 167 11.0 20.0 0.00 0.08 0.07 68 976.3
20260506113245 66 257 11.0 19.0 0.00 0.09 0.07 67 976.2
20260506112745 66 205 11.0 20.0 0.00 0.09 0.07 67 976.0
20260506112244 66 225 12.0 21.0 0.00 0.09 0.07 67 976.0
20260506111743 66 200 13.0 24.0 0.00 0.09 0.07 68 976.0
20260506111243 66 180 11.0 24.0 0.00 0.10 0.07 68 976.2
20260506110742 66 205 10.0 18.0 0.00 0.10 0.07 69 976.4
20260506110240 66 254 10.0 18.0 0.00 0.10 0.07 69 976.4
20260506105738 66 203 10.0 19.0 0.00 0.10 0.07 68 976.2
20260506105238 66 134 10.0 20.0 0.00 0.10 0.07 69 976.4
20260506104741 65 210 10.0 20.0 0.00 0.10 0.07 69 976.3
20260506103732 65 210 10.0 21.0 0.00 0.10 0.07 69 976.4
20260506103225 65 229 10.0 19.0 0.00 0.10 0.07 69 976.3
20260506102728 65 249 10.0 18.0 0.00 0.10 0.07 70 976.4
20260506102226 65 167 9.0 17.0 0.00 0.10 0.07 70 976.3
20260506101728 64 203 9.0 19.0 0.00 0.10 0.07 72 976.3
20260506101227 64 220 10.0 19.0 0.00 0.10 0.07 72 976.5
20260506100727 64 212 9.0 19.0 0.00 0.10 0.07 72 976.5
20260506100237 64 219 8.0 19.0 0.00 0.10 0.07 73 976.7
20260506095228 64 178 9.0 16.0 0.00 0.10 0.07 72 976.6
20260506094728 64 229 8.0 16.0 0.00 0.10 0.07 73 976.6
20260506094229 64 181 7.0 16.0 0.00 0.10 0.07 74 976.5
20260506093726 64 143 9.0 20.0 0.00 0.10 0.07 75 976.4
20260506093226 63 246 9.0 20.0 0.00 0.10 0.07 76 976.4
20260506092726 63 216 7.0 18.0 0.00 0.10 0.07 78 976.4
20260506092223 63 199 7.0 18.0 0.00 0.10 0.07 78 976.3
20260506090723 63 188 8.0 14.0 0.00 0.10 0.07 78 976.2
20260506090223 62 232 8.0 16.0 0.00 0.10 0.07 77 976.2
20260506085719 62 244 7.0 16.0 0.00 0.10 0.07 77 976.3
20260506085219 62 203 7.0 15.0 0.00 0.10 0.07 79 976.3
20260506084718 62 174 9.0 17.0 0.00 0.10 0.07 79 976.3
20260506084218 61 188 10.0 17.0 0.00 0.10 0.07 81 976.1
20260506083721 61 167 8.0 17.0 0.00 0.10 0.07 83 976.2
20260506083218 61 212 8.0 17.0 0.00 0.10 0.07 83 976.0
20260506082718 60 226 8.0 17.0 0.00 0.10 0.07 85 976.1
20260506082216 60 198 8.0 15.0 0.00 0.10 0.07 87 976.0
20260506081216 59 162 7.0 15.0 0.00 0.10 0.07 90 975.9
20260506080714 59 219 8.0 15.0 0.00 0.10 0.07 91 976.0
20260506080217 58 229 8.0 17.0 0.00 0.10 0.07 93 976.0
20260506073212 57 214 6.0 13.0 0.00 0.10 0.07 95 975.8
20260506072710 57 216 7.0 13.0 0.00 0.10 0.07 95 975.8
20260506072211 57 205 8.0 14.0 0.00 0.10 0.07 95 975.8
20260506071710 56 205 8.0 14.0 0.00 0.10 0.07 95 975.8
20260506071212 56 192 7.0 13.0 0.00 0.10 0.07 95 975.8
20260506070712 56 201 7.0 14.0 0.00 0.10 0.07 95 975.7
20260506070203 56 188 6.0 14.0 0.00 0.10 0.07 96 975.8
20260506061704 55 167 8.0 16.0 0.00 0.10 0.07 96 976.0
20260506061204 54 203 7.0 14.0 0.00 0.10 0.07 96 976.0
20260506060701 54 204 6.0 12.0 0.01 0.10 0.07 96 976.0
20260506060203 54 259 6.0 15.0 0.01 0.10 0.07 96 976.0